Regional Weather Roundup
Issued by NWS

Home | Current Version | Previous Version | Graphics & Text | Print | Product List | Glossary On
Versions: 1 2 3 4 5 6 7 8 9 10 11 12 13 14 15 16 17 18 19 20 21 22 23 24 25 26 27 28 29 30 31 32 33 34 35 36 37 38 39 40 41 42 43 44 45 46 47 48 49 50
000
ASUS44 KMEG 021410
RWRTN
TENNESSEE HOURLY STATE WEATHER ROUNDUP
NATIONAL WEATHER SERVICE MEMPHIS TN
900 AM CDT TUE SEP 02 2014

TNZ002-004-019-021-049-052-054-088>092-021500-
WEST TENNESSEE

CITY           SKY/WX    TMP DP  RH WIND       PRES   REMARKS
MEMPHIS INTL   CLOUDY    80  74  81 SW8G16    30.04S
NWS MEMPHIS      N/A     79 N/A N/A MISG        N/A
JACKSON        PTSUNNY   79  73  82 SW10      30.04R
DYERSBURG      PTSUNNY   79  66  65 SW9       30.03S
UNION CITY     SUNNY     77  73  88 SW9       30.00S
PARIS          PTSUNNY   79  72  78 SW14      30.03S
HUNTINGDON     PTSUNNY   78  72  82 SW8       30.04R
LEXINGTON      SUNNY     79  72  78 SW8       30.04R
SAVANNAH       MOSUNNY   81  75  83 SW8       30.06F
$$

TNZ008-025-027-028-033-062-065-066-021500-
NORTH MIDDLE TENNESSEE

CITY           SKY/WX    TMP DP  RH WIND       PRES   REMARKS
NASHVILLE      PTSUNNY   81  71  71 SW8       30.06S
DICKSON        MOSUNNY   77  72  83 SW9       30.04F
PORTLAND       CLOUDY    79  72  78 S9        30.03F
CLARKSVILLE    MOSUNNY   80  73  79 SW9       30.02R
LEBANON        MOSUNNY   81  71  71 S9        30.05S
SMYRNA         MOSUNNY   82  73  74 VRB7      30.06F
MURFREESBORO   MOSUNNY   80  70  71 SW7       30.06F
COOKEVILLE     SUNNY     81  73  78 SW7       30.09F
GALLATIN       MOSUNNY   80  74  82 SW5       30.06S
CROSSVILLE     MOSUNNY   77  69  76 W6        30.15F
$$

TNZ061-075-076-078-094-096-097-021500-
SOUTH MIDDLE TENNESSEE

CITY           SKY/WX    TMP DP  RH WIND       PRES   REMARKS
LEWISBURG      MOSUNNY   82  71  69 SW7       30.07F
FAYETTEVILLE   SUNNY     79  72  78 SW8       30.11S
TULLAHOMA      SUNNY     81  72  74 SW8       30.12S
WINCHESTER     SUNNY     81  72  74 W8        30.11S
MCMINNVILLE    SUNNY     81  77  89 SW7       30.10F
COLUMBIA         N/A     82  75  78 SW8       30.05F
SHELBYVILLE    SUNNY     82  73  74 SW8       30.10S
$$

TNZ017-018-042-046-047-021500-
NORTHEAST TENNESSEE

CITY           SKY/WX    TMP DP  RH WIND       PRES   REMARKS
TRI CITIES     CLOUDY    75  67  76 CALM      30.14S
ELIZABETHTON   PTSUNNY   73  66  78 CALM      30.14F
$$

TNZ012-013-036-069-073-074-021500-
CENTRAL EAST TENNESSEE

CITY           SKY/WX    TMP DP  RH WIND       PRES   REMARKS
KNOXVILLE      MOSUNNY   79  72  79 SW6       30.10S
OAK RIDGE      SUNNY     79  70  74 VRB6      30.12S
GATLINBURG     SUNNY     77  68  73 CALM      30.10S
MORRISTOWN     SUNNY     79  72  78 SW6       30.13S
$$

TNZ083-085-099-021500-
SOUTHEAST TENNESSEE

CITY           SKY/WX    TMP DP  RH WIND       PRES   REMARKS
CHATTANOOGA    MOSUNNY   81  70  69 S5        30.11S
$$

SKY/WX REPORTED AS FAIR MEANS FEW OR NO CLOUDS BELOW
12 THOUSAND FEET.




USA.gov is the U.S. government's official web portal to all federal, state and local government web resources and services.